Tracking 19283 objects as of 17-Nov-2018
HD Live streaming from Space Station
objects crossing your sky now

COSMOS 382

Track COSMOS 382 now!
10-day predictions
COSMOS 382 is classified as:


NORAD ID: 4786
Int'l Code: 1970-103A
Perigee: 2,479.2 km
Apogee: 5,190.4 km
Inclination: 55.9 °
Period: 171.0 minutes
Semi major axis: 10205 km
RCS: 19.6936 m2 (large)
Launch date: December 2, 1970
Source: Commonwealth of Independent States (former USSR) (CIS)
Launch site: TYURATAM MISSILE AND SPACE COMPLEX (TTMTR)
aabbcc
Your satellite tracking list
Your tracking list is empty




NASA's NSSDC Master Catalog

Two Line Element Set (TLE):
1  4786U 70103A   18320.51138587 -.00000023 +00000-0 +00000-0 0  9994
2  4786 055.8608 155.8309 1328264 195.5182 282.1239 08.42043784475303
Source of the keplerian elements: AFSPC